Location: Marysville Observatory
(48.1092°N, 122.1645°W)
Time: 14:25:15
(UTC-07:00)

Daily predictions for brighter satellites

Satellite Brightness Start Highest point End
(mag) Time Altitude Azimuth Time Altitude Azimuth Time Altitude Azimuth
USA 215 3.8 20:25:23 10° NE 20:31:52 65° NNW 20:38:20 10° WSW
H-2A R/B 4.1 20:33:02 10° S 20:36:37 41° W 20:40:12 10° NNW
Meteor 2-4 Rocket 3.8 20:31:08 10° N 20:36:43 72° ENE 20:42:26 10° SSE
Spot 2 Rocket 3.5 20:34:02 10° SSE 20:39:09 83° ENE 20:44:16 10° NNW
USA 238 DEB 4.0 20:33:53 10° NW 20:40:56 64° NE 20:48:02 10° SE
USA 238 4.0 20:33:59 10° NW 20:41:02 63° NE 20:48:08 10° SE
SL-8 R/B 3.8 20:37:24 10° W 20:42:11 71° SSW 20:46:58 10° ESE
Helios 1A 3.9 20:38:52 10° SE 20:42:40 33° ENE 20:46:29 10° N
YAOGAN 6 3.2 20:45:23 10° SE 20:48:37 36° ENE 20:51:52 10° N
Okean 1-7 Rocket 4.2 20:45:09 10° N 20:49:24 39° ENE 20:53:39 10° SE
ATLAS 3B R/B 2.7 20:43:36 10° NW 20:50:27 76° NE 20:57:00 10° SE
ERS-1 Rocket 4.0 20:47:22 10° ESE 20:51:39 29° ENE 20:55:57 10° N
Molniya-1 4.3 20:51:07 10° NNW 20:53:27 36° NE 20:56:22 12° ESE
BREEZE-M DEB 4.3 20:38:51 10° W 20:54:04 81° N 20:57:57 10° E
ARGOS 4.3 20:54:02 10° ESE 20:58:28 27° ENE 21:02:55 10° N
Resurs 01 Rocket 2.4 20:54:40 10° S 20:59:03 55° W 21:03:27 10° NNW
Cosmos 2151 Rocket 4.2 20:55:48 10° SSW 21:00:09 61° WNW 21:04:32 10° N
Cosmos 2266 Rocket 3.9 20:59:44 10° S 21:05:44 73° E 21:11:47 10° NNE
USA 267 4.4 21:00:26 10° SSE 21:06:25 38° SW 21:12:28 10° WNW
Cosmos 2263 Rocket 3.0 21:02:26 10° NW 21:07:57 51° WSW 21:13:24 10° S
Envisat 3.3 21:03:34 10° S 21:08:38 71° WSW 21:13:44 10° NNW
NOSS 2-3 (D) 4.0 21:06:06 10° SW 21:10:53 90° SE 21:16:39 10° NE
BREEZE M DEB (TANK) 3.8 21:00:45 10° W 21:11:28 77° N 21:14:50 10° E
SPOT 5 4.0 21:11:06 14° ESE 21:14:03 25° ENE 21:17:45 10° N
Cosmos 1844 Rocket 3.1 21:08:33 10° NNW 21:14:04 49° NE 21:18:29 16° SE
Lacrosse 5 1.8 21:09:33 10° SW 21:14:36 72° SE 21:19:41 10° NE
Cosmos 1515 3.9 21:11:07 10° N 21:14:51 52° ENE 21:18:02 14° SSE
Cosmos 2278 Rocket 3.6 21:11:21 10° N 21:16:01 25° NE 21:20:01 13° E
Helios 1B rocket 2.9 21:12:31 10° NNE 21:16:22 38° E 21:20:13 10° SSE
Cosmos 2315 Rocket 4.0 21:11:12 10° N 21:17:29 75° E 21:23:47 10° SSE
NOSS 3-2 (C) 4.4 21:10:33 10° NW 21:17:40 54° NE 21:24:12 15° ESE
Cosmos 2322 Rocket 2.8 21:13:27 10° SW 21:19:04 61° WNW 21:24:45 10° NNE
Cosmos 1892 Rocket 4.2 21:16:05 10° N 21:20:15 39° ENE 21:23:06 18° SE
Spot 1 4.4 21:19:14 10° SSE 21:24:16 73° ENE 21:29:14 10° N
EXPRESS MD2 3.2 21:26:47 10° WSW 21:29:39 84° N 21:35:02 10° ENE
Cosmos 1302 Rocket 4.4 21:24:53 10° S 21:29:48 41° ESE 21:34:44 10° NE
H-2A R/B 2.9 21:27:32 18° ESE 21:30:20 31° ENE 21:34:39 10° N
Cosmos 2237 4.4 21:25:42 10° S 21:31:09 50° ESE 21:36:40 10° NE
Abrixas rocket 2.3 21:27:57 10° W 21:31:12 60° SSW 21:32:42 28° SE
Cosmos 1500 3.5 21:29:27 15° SSE 21:32:27 46° E 21:36:11 10° NNE
Cosmos 1486 Rocket 4.0 21:27:22 10° NNW 21:32:39 71° ENE 21:36:25 19° SSE
SL-16 R/B 3.2 21:27:25 10° SW 21:32:55 49° NW 21:38:26 10° NNE
SAR-Lupe-4 3.7 21:31:47 23° SE 21:33:51 57° ENE 21:37:24 10° N
Cosmos 2219 Rocket 3.2 21:31:38 19° SE 21:33:59 24° ESE 21:38:27 10° NE
Cosmos 1544 Rocket 4.3 21:34:25 21° SE 21:36:39 35° E 21:40:42 10° NNE
Cosmos 405 3.4 21:35:03 23° SSE 21:36:52 41° E 21:40:17 10° NNE
CENTAUR R/B 3.9 21:30:08 10° NW 21:37:06 39° NNE 21:43:45 14° E
ATLAS 2AS CENTAUR R/B 3.1 21:29:47 10° SW 21:37:37 88° NW 21:45:51 10° NE
Okean 2 3.5 21:33:49 10° NNW 21:37:54 73° W 21:41:40 12° S
Cosmos 1110 Rocket 3.9 21:33:39 10° SSW 21:38:50 90° ENE 21:44:04 10° NNE
SeaSat 1 2.3 21:34:14 10° NNE 21:39:12 77° ESE 21:44:08 10° SSW
Terra 3.4 21:43:40 17° E 21:45:21 20° ENE 21:48:50 10° NNE
Cosmos 2322 3.6 21:40:39 10° SSW 21:46:18 82° ESE 21:52:02 10° NNE
Cosmos 1975 3.0 21:45:06 25° SSE 21:47:08 49° E 21:51:01 10° NNE
CZ-4B DEB 2.7 21:46:22 27° S 21:47:42 65° WSW 21:50:35 10° NNW
NOSS 3-4 (A) 4.2 21:43:27 10° S 21:48:43 29° ESE 21:54:09 10° ENE
Cosmos 1455 Rocket 3.6 21:46:55 27° SE 21:48:43 40° E 21:52:55 10° NNE
NOSS 3-4 (C) 4.2 21:43:51 11° S 21:48:50 29° ESE 21:54:14 10° ENE
Cosmos 1331 Rocket 4.0 21:44:35 10° SSW 21:49:48 83° WNW 21:55:06 10° NNE
Cosmos 2360 Rocket 2.3 21:44:33 10° SSW 21:50:11 80° WNW 21:55:52 10° NNE
SAR-Lupe-1 4.0 21:48:59 31° SSE 21:50:35 76° ENE 21:54:10 10° N
COSMOS 2428 2.7 21:53:55 10° S 21:59:32 60° ESE 22:05:11 10° NE
Cosmos 1844 3.7 21:53:50 10° NNW 21:59:33 79° ENE 22:02:38 29° SE
Cosmos 1025 Rocket 4.3 21:56:07 10° NNW 22:00:05 37° W 22:04:01 10° SSW
OPS 6432 4.0 21:59:55 10° SW 22:03:18 78° SE 22:06:20 10° NE
MetOp-A 4.3 22:05:42 21° S 22:09:19 74° WSW 22:14:42 10° NNW
Cosmos 1241 Rocket 4.4 22:03:41 10° SSW 22:10:12 70° ESE 22:16:38 10° NE
Cosmos 724 4.2 22:04:24 10° NW 22:10:20 84° SW 22:13:08 32° SSE
Cosmos 1354 Rocket 4.0 22:06:52 10° NNW 22:12:15 81° ENE 22:14:32 35° SSE
Cosmos 2333 Rocket 2.6 22:11:01 33° SE 22:12:24 39° ESE 22:17:37 10° NE
Meteor 1-12 Rocket 4.1 22:08:01 16° S 22:12:32 77° E 22:18:13 10° NNE
Cosmos 1437 Rocket 2.9 22:12:14 49° ESE 22:12:35 50° E 22:16:24 10° NNE
USA 215 4.4 22:08:16 10° ENE 22:14:20 42° N 22:20:24 10° WNW
Cosmos 1666 3.1 22:17:47 44° E 22:17:47 44° E 22:21:15 10° NNE
Cosmos 2333 4.1 22:12:12 10° SSW 22:17:49 76° ESE 22:23:27 10° NNE
CARTOSAT-1 4.2 22:21:47 36° E 22:22:16 38° ENE 22:26:17 10° N
Cosmos 1238 Rocket 4.5 22:17:01 10° NNW 22:23:38 61° W 22:28:19 18° SSW
Cosmos 2237 Rocket 2.9 22:23:57 33° E 22:23:57 33° E 22:28:40 10° NE
Nadezhda 1 Rocket 4.0 22:17:54 10° N 22:24:15 81° E 22:27:23 33° SSE
Meteor 1-29 4.3 22:22:41 10° N 22:25:55 39° WNW 22:28:18 16° SW
NOSS 3-2 (A) 4.2 22:20:58 10° NW 22:28:20 66° SW 22:32:34 30° SSE
DMSP B5D2-2 4.4 22:23:50 10° NNE 22:28:53 45° E 22:29:34 43° ESE
ERS-1 Rocket 3.9 22:26:59 19° SSW 22:30:16 42° W 22:35:04 10° NNW
Cosmos 1980 4.1 22:30:32 40° ESE 22:30:46 40° ESE 22:36:02 10° NE
Cosmos 1602 Rocket 3.4 22:26:34 10° N 22:30:55 69° ENE 22:31:27 61° SE
Cosmos 1818 3.5 22:26:32 10° SW 22:31:59 89° SE 22:37:28 10° NE
Cosmos 1503 Rocket 4.2 22:26:39 10° NNW 22:32:01 71° WSW 22:34:02 39° S
SPOT 1/Viking Rocket 3.5 22:30:06 41° SSE 22:32:02 88° WSW 22:37:18 10° NNW
Nimbus 7 Rocket 4.4 22:27:05 10° NNE 22:32:53 58° ESE 22:34:46 40° SSE
SL-08 RB Rocket 4.0 22:31:57 38° SSW 22:33:34 63° WSW 22:38:04 10° NNW
H-2A R/B 3.3 22:34:44 28° ENE 22:34:56 29° ENE 22:38:45 10° N
ATLAS CENTAUR R/B 2.6 22:33:39 10° NNW 22:36:48 25° NE 22:37:06 25° NE
Cosmos 1842 3.4 22:34:21 10° N 22:38:07 62° ENE 22:38:07 62° ENE
ARGOS 3.7 22:35:33 26° SSW 22:38:26 52° W 22:43:41 10° NNW
Cosmos 1743 2.8 22:39:37 65° SW 22:40:02 74° W 22:43:52 10° N
ATLAS 3B R/B 4.2 22:35:08 10° WNW 22:40:29 26° WSW 22:44:29 15° SSW
YAOGAN 11 4.5 22:42:21 45° SSW 22:43:23 58° WSW 22:47:39 10° NNW
USA 81 4.2 22:38:41 10° N 22:43:52 52° E 22:44:32 49° ESE
Cosmos 1709 Rocket 4.1 22:45:16 46° SE 22:46:34 54° E 22:52:39 10° NNE
BREEZE-M (TANK) 3.4 22:36:46 10° WNW 22:48:37 61° SW 22:49:24 53° S
Cosmos 2181 Rocket 4.2 22:42:52 10° N 22:49:13 57° ENE 22:50:46 46° ESE
Cosmos 2297 4.1 22:44:46 10° NNW 22:50:17 49° NE 22:51:32 42° E
SPOT 5 3.6 22:50:21 33° SSW 22:51:56 44° W 22:56:20 10° NNW
Cosmos 1626 Rocket 3.7 22:49:25 10° NNW 22:53:42 64° W 22:54:11 59° SW
Cosmos 1844 Rocket 4.0 22:52:50 10° NW 22:57:46 31° WSW 23:00:09 23° SW
Lacrosse 5 3.2 22:53:07 10° W 22:57:55 40° NNW 23:02:42 10° NE
CZ-2C R/B 4.5 22:58:30 22° ENE 22:58:46 22° ENE 23:02:27 10° NNE
COSMOS 2455 3.3 22:53:14 10° NNW 22:59:08 53° NE 23:00:40 42° E
IGS 5A 3.4 23:00:51 79° N 23:00:51 79° N 23:04:48 10° NNW
Cosmos 2278 Rocket 2.3 22:55:00 10° NNW 23:00:40 71° WSW 23:01:51 54° S
Cosmos 2292 Rocket 4.5 23:01:10 32° SSW 23:04:31 78° W 23:09:55 10° N
DNEPR-1 R/B 3.7 23:01:36 10° NW 23:05:59 71° NE 23:06:03 71° ENE
Landsat 7 4.1 23:06:43 54° SW 23:07:20 59° WSW 23:12:04 10° NNW
NOSS 0 Rocket 3.8 23:05:59 42° SSW 23:08:17 81° ESE 23:14:34 10° NNE
NOSS 3-2 (C) 4.4 23:01:35 10° NW 23:08:47 51° WSW 23:11:38 37° S
H-2A R/B 3.0 23:08:11 31° SW 23:09:40 39° W 23:14:19 10° NNW
CZ-2C R/B 4.5 23:05:50 10° NE 23:08:19 18° ENE 23:08:19 18° ENE
Cosmos 1992 Rocket 3.9 23:09:39 59° SSW 23:10:39 84° WNW 23:15:56 10° NNE
Aureole 2 Rocket 4.2 23:12:17 29° NW 23:12:17 29° NW 23:14:51 10° N
Cosmos 968 Rocket 3.3 23:07:17 10° NNW 23:12:26 83° WSW 23:12:43 78° SSW
Meteor 1-4 Rocket 3.9 23:18:00 38° N 23:18:00 38° N 23:20:26 10° NNE
Cosmos 1825 Rocket 3.9 23:12:56 10° N 23:16:35 60° NNE 23:16:35 60° NNE
Cosmos 2219 Rocket 2.6 23:13:13 17° SW 23:17:31 61° WNW 23:23:08 10° NNE
Terra 2.1 23:22:33 59° WSW 23:22:41 59° W 23:27:26 10° NNW
Meteor 2-9 Rocket 4.3 23:22:51 54° SW 23:24:09 74° WNW 23:29:47 10° N
CENTAUR R/B 3.0 23:20:49 10° NW 23:28:38 83° SW 23:30:54 53° SSE
GP-B 3.9 23:26:48 10° N 23:31:02 44° W 23:31:13 44° W
Cosmos 1943 Rocket 4.3 23:30:02 10° N 23:33:40 17° NE 23:36:03 14° ENE
SL-16 R/B 2.9 23:35:21 41° ENE 23:35:21 41° ENE 23:39:29 10° NE
Cosmos 1758 Rocket 4.1 23:29:47 10° N 23:33:13 55° N 23:33:13 55° N
CZ-4B R/B 4.3 23:33:46 10° NNE 23:36:59 38° NE 23:36:59 38° NE
NOSS 3-4 (A) 3.8 23:32:51 10° SW 23:39:08 67° NW 23:45:43 10° NE
NOSS 3-4 (C) 3.8 23:32:58 10° SW 23:39:14 67° NW 23:45:49 10° NE
ARGOS Delta rocket 4.0 23:35:12 10° N 23:39:28 68° NW 23:39:28 68° NW
SL-08 ROCKET BODY 4.2 23:43:09 82° ESE 23:43:17 83° E 23:49:09 10° N
Meteor 1-24 Rocket 4.3 23:38:47 10° N 23:44:29 48° ENE 23:44:34 48° ENE
EXPRESS MD2 4.3 23:43:39 10° WNW 23:48:00 84° NNE 23:49:35 55° E
